Location: Central Falls
(41.8900°N, 71.3929°W)
Time: 06:44:49
(UTC+00:00)

Altair - Pass Details

Date: 10 December 2023
Orbit: 1501 x 1682 km, 47.2° (Epoch: 29 February)

Event Time Altitude Azimuth Distance (km) Brightness Sun altitude
Rises 10:52:40 0° 221° (SW) 4,886 9.9 -12.5°
Reaches altitude 10° 10:55:54 10° 218° (SW) 3,882 9.4 -12.0°
Maximum altitude 11:05:31 58° 142° (SE) 1,822 8.2 -10.3°
Drops below altitude 10° 11:14:48 10° 67° (ENE) 3,756 10.2 -8.7°
Sets 11:17:52 0° 63° (ENE) 4,719 10.7 -8.2°
